Elmira, NY

9:22 AM EDT on September 15, 2019 (GMT -0400)
Elmira-Corning Regional

Weather History for KELM - May, 2019

Change the Weather History Date:

Saturday, May 18, 2019

  Actual Average Record
Temperature  
Mean Temperature 56 °F -  
Max Temperature 73 °F 71 °F 91 °F (2017)
Min Temperature 39 °F 43 °F 24 °F (1983)
Degree Days  
Heating Degree Days 9    
Growing Degree Days 6 (Base 50)    
Moisture  
Dew Point 43 °F    
Average Humidity 73    
Maximum Humidity 100    
Minimum Humidity 34    
Precipitation  
Precipitation 0.00 in - - ()
Sea Level Pressure  
Sea Level Pressure 29.99 in    
Wind  
Wind Speed 2 mph (NW)    
Max Wind Speed 8 mph    
Max Gust Speed -    
Visibility 8 miles    
Events Fog    
Averages and records for this station are not official NWS values.
T = Trace of Precipitation, MM = Missing Value Source: NWS Daily Summary

Daily Weather History Graph

Daily Weather History Graph

Search for Another Location

Airport or City:

Astronomy

May. 18, 2019 Rise Set
Actual Time 5:44 AM EDT 8:24 PM EDT
Civil Twilight 5:11 AM EDT 8:57 PM EDT
Nautical Twilight 4:31 AM EDT 9:37 PM EDT
Astronomical Twilight 3:45 AM EDT 10:24 PM EDT
Moon 8:16 PM EDT (5/18) 5:51 AM EDT (5/18)
Length of Visible Light 15h 45m
Length of Day
14h 40m
Full, 100% of the Moon is Illuminated
May 18
Full
May 18
Full
May 26
Last Quarter
Jun 3
New
Jun 10
First Quarter

Hourly Weather History & Observations

Time (EDT) Temp. Windchill Dew Point Humidity Pressure Visibility Wind Dir Wind Speed Gust Speed Precip Events Conditions
12:53 AM 46.9 °F - 43.0 °F 86% 29.93 in 10.0 mi Calm Calm - N/A   Clear
1:53 AM 45.0 °F - 41.0 °F 86% 29.94 in 10.0 mi Calm Calm - N/A   Clear
2:53 AM 43.0 °F - 39.9 °F 89% 29.94 in 10.0 mi Calm Calm - N/A   Clear
3:29 AM 41.0 °F - 39.0 °F 93% 29.95 in 2.0 mi Calm Calm - N/A   Clear
3:38 AM 41.0 °F - 39.0 °F 93% 29.95 in 8.0 mi Calm Calm - N/A   Clear
3:53 AM 41.0 °F 38.0 °F 39.0 °F 93% 29.96 in 8.0 mi West 4.6 mph - N/A   Clear
4:53 AM 41.0 °F - 37.9 °F 89% 29.99 in 10.0 mi Calm Calm - N/A   Clear
5:50 AM 42.8 °F 38.6 °F 41.0 °F 93% 30.00 in 1.8 mi SW 6.9 mph - N/A   Scattered Clouds
5:53 AM 43.0 °F 38.8 °F 41.0 °F 93% 30.00 in 0.5 mi SW 6.9 mph - N/A Fog Fog
6:00 AM 41.0 °F 39.0 °F 41.0 °F 100% 30.00 in 0.2 mi Variable 3.5 mph - N/A Fog Fog
6:13 AM 39.9 °F 37.8 °F 37.9 °F 93% 30.01 in 0.5 mi West 3.5 mph - N/A Fog Fog
6:32 AM 39.0 °F 36.8 °F 37.9 °F 96% 30.01 in 1.2 mi West 3.5 mph - N/A   Scattered Clouds
6:34 AM 39.9 °F 37.8 °F 37.9 °F 93% 30.01 in 4.0 mi West 3.5 mph - N/A   Scattered Clouds
6:43 AM 41.0 °F - 39.9 °F 96% 30.01 in 10.0 mi Calm Calm - N/A   Mostly Cloudy
6:53 AM 44.1 °F 42.5 °F 42.1 °F 93% 30.02 in 2.0 mi West 3.5 mph - N/A   Mostly Cloudy
7:03 AM 45.0 °F 42.6 °F 43.0 °F 93% 30.01 in 7.0 mi WSW 4.6 mph - N/A   Mostly Cloudy
7:53 AM 48.9 °F - 44.1 °F 83% 30.02 in 10.0 mi West 3.5 mph - N/A   Clear
8:53 AM 53.1 °F - 44.1 °F 71% 30.04 in 10.0 mi East 6.9 mph - N/A   Clear
9:53 AM 55.9 °F - 44.1 °F 64% 30.05 in 10.0 mi East 6.9 mph - N/A   Clear
10:53 AM 60.1 °F - 45.0 °F 57% 30.06 in 10.0 mi Variable 3.5 mph - N/A   Clear
11:53 AM 62.1 °F - 45.0 °F 53% 30.05 in 10.0 mi SSE 3.5 mph - N/A   Partly Cloudy
12:53 PM 64.9 °F - 43.0 °F 45% 30.02 in 10.0 mi Calm Calm - N/A   Mostly Cloudy
1:53 PM 66.9 °F - 43.0 °F 42% 30.01 in 10.0 mi ENE 3.5 mph - N/A   Clear
2:53 PM 70.0 °F - 44.1 °F 39% 29.98 in 10.0 mi NE 6.9 mph - N/A   Clear
3:53 PM 71.1 °F - 42.1 °F 35% 29.99 in 10.0 mi ENE 5.8 mph - N/A   Scattered Clouds
4:53 PM 72.0 °F - 45.0 °F 38% 29.97 in 10.0 mi WNW 3.5 mph - N/A   Overcast
5:53 PM 73.0 °F - 43.0 °F 34% 29.97 in 10.0 mi ENE 8.1 mph - N/A   Overcast
6:53 PM 72.0 °F - 46.0 °F 40% 29.96 in 10.0 mi ENE 6.9 mph - N/A   Overcast
7:53 PM 68.0 °F - 46.0 °F 45% 29.96 in 10.0 mi ENE 5.8 mph - N/A   Overcast
8:53 PM 61.0 °F - 50.0 °F 67% 30.00 in 10.0 mi Calm Calm - N/A   Partly Cloudy
9:53 PM 61.0 °F - 46.0 °F 58% 30.00 in 10.0 mi NNE 6.9 mph - N/A   Clear
10:53 PM 55.0 °F - 46.0 °F 72% 30.00 in 10.0 mi Calm Calm - N/A   Clear
11:53 PM 54.0 °F - 46.0 °F 75% 29.99 in 10.0 mi Calm Calm - N/A   Clear